Regional Weather Roundup
Issued by NWS

Home | Current Version | Previous Version | Text Only | Print | Product List | Glossary On
Versions: 1 2 3 4 5 6 7 8 9 10 11 12 13 14 15 16 17 18 19 20 21 22 23 24 25 26 27 28 29 30 31 32 33 34 35 36 37 38 39 40 41 42 43 44 45 46 47 48 49 50
000
ASUS44 KOUN 010010
RWROK

WEATHER ROUNDUP FOR OKLAHOMA
NATIONAL WEATHER SERVICE NORMAN OK
600 PM CST SAT FEB 28 2015

NOTE: "FAIR" INDICATES FEW OR NO CLOUDS BELOW 12,000 FEET WITH NO
      SIGNIFICANT WEATHER AND/OR OBSTRUCTIONS TO VISIBILITY.

OKZ001>007-009>012-014-015-017-010100-
NORTHWEST OKLAHOMA AND THE PANHANDLE

CITY           SKY/WX    TMP DP  RH WIND       PRES   REMARKS
GAGE           CLOUDY    23  18  81 S8        30.20R WCI  14
6HR MIN TEMP:  20; 6HR MAX TEMP:  24; 6HR PCP: TRACE;

GUYMON         CLOUDY    25  18  74 SE10      30.09R WCI  15
ENID/WOODRING  CLOUDY    25  23  93 E8        30.30  FOG     WCI  16
$$

OKZ016-021>023-033>039-044-045-010100-
SOUTHWEST OKLAHOMA

CITY           SKY/WX    TMP DP  RH WIND       PRES   REMARKS
LAWTON/REGL    CLOUDY    27  24  89 NE6       30.30R FOG     WCI  20
6HR MIN TEMP:  24; 6HR MAX TEMP:  28; 6HR PCP: TRACE;

LAWTON/FT SILL CLOUDY    27  27 100 NE3       30.27S
FREDERICK      CLOUDY    26  24  92 NE6       30.26R FOG     WCI  19
CLINTON        CLOUDY    24  20  84 SE8       30.25S FOG     WCI  15
HOBART         CLOUDY    24  22  91 E7        30.27R FOG     WCI  16
ALTUS AFB      FRZ DRZL  25  25 100 SE5       30.27S FOG     WCI  19
$$

OKZ018>020-024>031-010100-
CENTRAL OKLAHOMA

CITY           SKY/WX    TMP DP  RH WIND       PRES   REMARKS
OKLAHOMA CITY  FRZ DRZL  26  22  84 E5        30.29F FOG     WCI  20
6HR MIN TEMP:  24; 6HR MAX TEMP:  27; 6HR PCP:  0.01;

OKC/WILEY POST CLOUDY    25  23  92 E5        30.30F FOG     WCI  19
OKC/TINKER AFB CLOUDY    25  23  93 E6        30.28S FOG     WCI  18
STILLWATER     CLOUDY    26  23  88 NE3       30.32S FOG
GUTHRIE        CLOUDY    25  23  92 E3        30.31S FOG
$$

OKZ008-013-054>072-010100-
NORTHEAST OKLAHOMA

CITY           SKY/WX    TMP DP  RH WIND       PRES   REMARKS
TULSA          FRZ DRZL  28  26  92 E5        30.35F WCI  23
6HR MIN TEMP:  25; 6HR MAX TEMP:  28; 6HR PCP:  0.11;

TULSA/JONES    CLOUDY    27  25  92 CALM      30.36S FOG
PONCA CITY     CLOUDY    26  21  81 E5        30.33S WCI  20
BARTLESVILLE   CLOUDY    25  23  92 E5        30.38S FOG     WCI  19
MUSKOGEE       CLOUDY    28  25  88 NE5       30.38S FOG     WCI  23
$$

OKZ032-040>043-046>053-073>077-010100-
SOUTH CENTRAL/SOUTHEAST OKLAHOMA

CITY           SKY/WX    TMP DP  RH WIND       PRES   REMARKS
ARDMORE/DWNTWN MIX PCPN  30  30 100 CALM      30.30S
MCALESTER      FRZ RAIN  30  27  88 NE3       30.34S FOG
$$




USA.gov is the U.S. government's official web portal to all federal, state and local government web resources and services.